Location: *
(48.8489°N, 2.3218°E)
Time: 05:00:42
(UTC+00:00)

Cosmos 2082 Rocket - Pass Details

Date: 23 August 2019
Orbit: 831 x 855 km, 71.0° (Epoch: 21 September)

Event Time Altitude Azimuth Distance (km) Brightness Sun altitude
Exits shadow 20:00:48 14° 135° (SE) 2,189 3.7 -11.1°
Maximum altitude 20:03:37 20° 100° (E) 1,869 3.5 -11.5°
Drops below altitude 10° 20:07:33 10° 56° (NE) 2,471 4.4 -12.0°
Sets 20:10:38 0° 40° (NE) 3,416 5.3 -12.5°
